User: anonymous   Login
Location: Aiyekoto
(8.4333°N, 4.3667°E)
Time: 17:21:56
(UTC+00:00)
Language:

Cosmos 1844 Rocket - Orbit

View from above orbital plane
View from above orbital plane
View from above satellite
View from above satellite

Ground track
Ground track

The orbit data is extracted from the following two-line orbital elements,

1 17974U 87041B   20227.82815493 -.00000105  00000-0 -28353-4 0  9994
2 17974  71.0102 357.0767 0011884  66.3390  43.6904 14.17266646720272
Epoch (UTC): 14 August 2020 19:52:32
Eccentricity: 0.0011884
inclination: 71.0102°
perigee height: 826 km
apogee height: 843 km
right ascension of ascending node: 357.0767°
argument of perigee: 66.3390°
revolutions per day: 14.17266646
mean anomaly at epoch: 43.6904°
orbit number at epoch: 72027

The dashed part of the orbit path shows where the satellite is in the earth's shadow,  

DLR